Tracking 27097 objects as of 29-Mar-2023
HD Live streaming from Space Station
objects crossing your sky now

IRIDIUM 38

Track IRIDIUM 38 now!
10-day predictions
IRIDIUM 38 is classified as:


NORAD ID: 25043
Int'l Code: 1997-069E
Perigee: 776.1 km
Apogee: 777.1 km
Inclination: 86.4 °
Period: 100.2 minutes
Semi major axis: 7147 km
RCS: 5.0293 m2 (large)
Launch date: November 9, 1997
Source: United States (US)
Launch site: AIR FORCE WESTERN TEST RANGE (AFWTR)
Your satellite tracking list
Your tracking list is empty




NASA's NSSDC Master Catalog

Two Line Element Set (TLE):
1 25043U 97069E   23087.83863148  .00001035  00000-0  34507-3 0  9997
2 25043  86.4012 214.0134 0000673 170.3959 189.7252 14.36687174329412
Source of the keplerian elements: AFSPC